Location: Oshawa
(43.9000°N, 78.8670°W)
Time: 22:40:51
(UTC-04:00)

Explorer 11/Cluster Stage 4 - Visible Passes

Search period start: 04 July 2015 00:00
Search period end: 14 July 2015 00:00
Orbit: 468 x 1272 km, 28.8° (Epoch: 03 July)

Date Brightness Start Highest point End Pass type
(mag) Time Alt. Az. Time Alt. Az. Time Alt. Az.
09 Jul 9.0 04:16:16 10° S 04:17:26 11° SSE 04:18:42 10° SSE visible
10 Jul 8.9 04:06:32 11° S 04:08:38 13° SSE 04:11:25 10° SE visible
11 Jul 8.8 03:57:59 14° S 03:59:48 15° SSE 04:03:26 10° SE visible
12 Jul 8.7 03:49:25 16° S 03:50:56 17° SSE 03:55:11 10° SE visible
13 Jul 8.6 03:40:51 19° S 03:42:03 19° S 03:46:48 10° SE visible
